Change the Weather History Date:

Saturday, December 22, 2012

  Actual Average Record
Temperature  
Mean Temperature 23 °F 27 °F  
Max Temperature 36 °F 35 °F 62 °F (1933)
Min Temperature 9 °F 19 °F -18 °F (1989)
Degree Days  
Heating Degree Days 42 38  
Month to date heating degree days 580 766  
Since 1 July heating degree days 1819 1839  
Cooling Degree Days 0 0  
Month to date cooling degree days 0 0  
Year to date cooling degree days 1287 1207  
Moisture  
Dew Point 15 °F    
Average Humidity 68    
Maximum Humidity 92    
Minimum Humidity 43    
Precipitation  
Precipitation 0.00 in 0.07 in 0.46 in (2001)
Month to date precipitation 1.43 1.58  
Year to date precipitation 23.82 37.97  
Sea Level Pressure  
Sea Level Pressure 30.12 in    
Wind  
Wind Speed 4 mph (SSE)    
Max Wind Speed 14 mph    
Max Gust Speed 16 mph    
Visibility 9 miles    
Events      
T = Trace of Precipitation, MM = Missing Value Source: NWS Daily Summary

Daily Weather History Graph

Daily Weather History Graph

Search for Another Location

Airport or City:

Trip Planner

Search our weather history database for the weather conditions in past years. The results will help you decide how hot, cold, wet, or windy it might be!

Date:

Astronomy

Dec. 22, 2012 Rise Set
Actual Time 7:26 AM CST 4:40 PM CST
Civil Twilight 6:54 AM CST 5:11 PM CST
Nautical Twilight 6:20 AM CST 5:46 PM CST
Astronomical Twilight 5:47 AM CST 6:19 PM CST
Moon 12:59 PM CST (12/22) 2:10 AM CST (12/22)
Length of Visible Light 10h 16m
Length of Day
9h 14m
Waxing Gibbous, 74% of the Moon is Illuminated
Dec 22
Waxing Gibbous
Dec 28
Full
Jan 4
Last Quarter
Jan 11
New
Jan 18
First Quarter

Hourly Weather History & Observations

Time (CST) Temp. Windchill Dew Point Humidity Pressure Visibility Wind Dir Wind Speed Gust Speed Precip Events Conditions
12:53 AM 14.0 °F 8.2 °F 9.0 °F 80% 30.30 in 10.0 mi WNW 3.5 mph - N/A   Clear
1:53 AM 12.9 °F 5.2 °F 9.0 °F 84% 30.30 in 10.0 mi WNW 4.6 mph - N/A   Clear
2:53 AM 12.0 °F - 9.0 °F 88% 30.29 in 10.0 mi Calm Calm - N/A   Clear
3:53 AM 10.9 °F - 8.1 °F 88% 30.27 in 10.0 mi Calm Calm - N/A   Clear
4:53 AM 10.0 °F - 8.1 °F 92% 30.26 in 9.0 mi Calm Calm - N/A   Clear
5:53 AM 10.0 °F - 8.1 °F 92% 30.26 in 8.0 mi Calm Calm - N/A   Clear
6:53 AM 10.0 °F 3.6 °F 7.0 °F 87% 30.25 in 7.0 mi SSE 3.5 mph - N/A   Clear
7:53 AM 12.9 °F 5.2 °F 10.9 °F 92% 30.23 in 6.0 mi SE 4.6 mph - N/A   Clear
8:53 AM 17.1 °F 11.7 °F 12.9 °F 84% 30.23 in 10.0 mi SSE 3.5 mph - N/A   Clear
9:53 AM 21.9 °F 14.5 °F 15.1 °F 75% 30.22 in 10.0 mi SSE 5.8 mph - N/A   Clear
10:53 AM 27.0 °F 18.7 °F 16.0 °F 63% 30.18 in 10.0 mi South 8.1 mph - N/A   Clear
11:53 AM 30.0 °F 21.7 °F 15.1 °F 54% 30.13 in 10.0 mi SSE 9.2 mph - 0.02 in   Clear
12:53 PM 33.1 °F 24.4 °F 14.0 °F 46% 30.08 in 10.0 mi SSE 11.5 mph - N/A   Clear
1:53 PM 34.0 °F 26.6 °F 18.0 °F 52% 30.04 in 10.0 mi ESE 9.2 mph - N/A   Clear
2:53 PM 35.1 °F 29.3 °F 19.9 °F 54% 30.02 in 10.0 mi South 6.9 mph - N/A   Clear
3:53 PM 34.0 °F 28.0 °F 19.9 °F 56% 30.00 in 10.0 mi South 6.9 mph - N/A   Clear
4:53 PM 30.9 °F 27.5 °F 19.9 °F 64% 30.00 in 10.0 mi SSE 3.5 mph - N/A   Clear
5:53 PM 27.0 °F - 19.9 °F 75% 29.99 in 10.0 mi Calm Calm - N/A   Clear
6:53 PM 26.1 °F - 19.9 °F 78% 30.01 in 10.0 mi Calm Calm - N/A   Clear
7:53 PM 26.1 °F 21.9 °F 19.9 °F 78% 29.98 in 10.0 mi South 3.5 mph - N/A   Clear
8:53 PM 21.9 °F - 18.0 °F 85% 29.97 in 10.0 mi Calm Calm - N/A   Clear
9:53 PM 21.0 °F - 18.0 °F 88% 29.96 in 10.0 mi Calm Calm - N/A   Clear
10:53 PM 21.9 °F - 19.9 °F 92% 29.96 in 9.0 mi Calm Calm - N/A   Clear
11:53 PM 21.0 °F - 18.0 °F 88% 29.96 in 7.0 mi Calm Calm - N/A   Clear